map of VAA home
VAA - Airport
Location
City:  Vaasa, Pohjanmaa (Österbotten, Ostrobothnia), Finland
ICAO:EFVA
IATA:VAA

Details
Type:Airport (Aerodrome, Airfield)
Use:Public/Civil, International (customs port of entry)
Latitude:63°03'02"N (63.050650)
Longitude:21°45'44"E (21.762175)
Datum:WGS 1984
Elevation:19 ft (6 m)
Variation:8.36°E (WMM2015 magnetic declination)
0.17° annual change
Runways:1
Longest:8727 × 157 ft (2660 × 48 m), paved

Time
Time Zone:UTC+2 (DST+3)
Local Time:

Weather
METAR:EFVA 241720Z AUTO 12007KT 9999 -RA SCT018/// OVC055/// 11/10 Q0997
TAF:EFVA 241425Z 2415/2515 16013KT 9999 -RA FEW035 BKN045
TEMPO 2415/2501 7000 RA
BECMG 2501/2503 BKN005
TEMPO 2503/2510 3000 DZRA BKN003
BECMG 2510/2512 22010KT BKN010
BECMG 2512/2515 BKN015

Related Locations
Nearby:
Farthest:NZTB: 11228 mi / 18070 km
Terra Nova Bay [Mario Zucchelli Station], AQ

Find:

   beyond  
but within

Other Information
Maps:
NOTAMs:
Links:
Sources:

  
flag of Finland   

Sectional Chart

Flight Planning
at skyvector.com

Satellite Image

Google Maps Satellite view

 

Copyright © 2004-2017 Karl L. Swartz. All rights reserved.
The Great Circle Mapper name and logo are trademarks of the Great Circle Mapper.
All other trademarks mentioned herein belong to their respective owners.
Please see credits for attibutions and further copyright information.

  Follow gcmap on Facebook Follow gcmap on Twitter Follow gcmap on Google+ GCmap on LinkedIn

hCard Microformat

Geo Microformat